Location: Aufkirchen
(47.9603°N, 11.3653°E)
Time: 06:46:56
(UTC+01:00)

Transit 4A - Pass Details

Date: 04 December 2020
Orbit: 864 x 980 km, 66.8° (Epoch: 25 January)

Event Time Altitude Azimuth Distance (km) Brightness Sun altitude
Rises 13:17:11 0° 323° (NW) 3,690 10.7 17.9°
Reaches altitude 10° 13:20:26 10° 338° (NNW) 2,735 10.0 17.7°
Maximum altitude 13:25:19 22° 28° (NNE) 1,969 9.2 17.4°
Drops below altitude 10° 13:30:09 10° 79° (ENE) 2,691 10.1 17.1°
Sets 13:33:17 0° 94° (E) 3,615 10.8 17.0°
